TimeCST,TemperatureF,Dew PointF,Humidity,Sea Level PressureIn,VisibilityMPH,Wind Direction,Wind SpeedMPH,Gust SpeedMPH,PrecipitationIn,Events,Conditions,WindDirDegrees,DateUTC
12:15 AM,42.8,41.0,93,29.84,4.0,SE,5.8,-,N/A,,Overcast,140,2012-12-28 06:15:00
12:35 AM,42.8,41.0,93,29.84,4.0,Calm,Calm,-,N/A,,Overcast,0,2012-12-28 06:35:00
12:55 AM,42.8,41.0,93,29.84,4.0,Calm,Calm,-,N/A,,Overcast,0,2012-12-28 06:55:00
1:15 AM,42.8,41.0,93,29.85,4.0,NE,3.5,-,N/A,,Overcast,40,2012-12-28 07:15:00
1:35 AM,41.0,41.0,100,29.85,2.5,NNE,4.6,-,N/A,,Overcast,30,2012-12-28 07:35:00
1:55 AM,41.0,41.0,100,29.85,2.0,NNE,4.6,-,N/A,,Overcast,30,2012-12-28 07:55:00
2:15 AM,41.0,41.0,100,29.85,1.5,ENE,3.5,-,N/A,,Overcast,60,2012-12-28 08:15:00
2:35 AM,41.0,41.0,100,29.85,0.8,East,4.6,-,N/A,,Overcast,100,2012-12-28 08:35:00
2:55 AM,41.0,41.0,100,29.85,0.5,ESE,4.6,-,N/A,Fog,Fog,110,2012-12-28 08:55:00
3:15 AM,41.0,41.0,100,29.87,0.5,East,3.5,-,N/A,Fog,Fog,100,2012-12-28 09:15:00
3:35 AM,41.0,41.0,100,29.85,0.8,ENE,3.5,-,N/A,,Overcast,60,2012-12-28 09:35:00
3:55 AM,41.0,41.0,100,29.85,0.8,East,4.6,-,N/A,,Overcast,100,2012-12-28 09:55:00
4:15 AM,41.0,41.0,100,29.85,2.5,ESE,3.5,-,N/A,,Overcast,110,2012-12-28 10:15:00
4:35 AM,41.0,41.0,100,29.86,3.0,SSE,3.5,-,N/A,,Overcast,150,2012-12-28 10:35:00
4:55 AM,41.0,41.0,100,29.87,4.0,Calm,Calm,-,N/A,,Overcast,0,2012-12-28 10:55:00
5:15 AM,41.0,41.0,100,29.88,4.0,Calm,Calm,-,N/A,,Overcast,0,2012-12-28 11:15:00
5:35 AM,41.0,41.0,100,29.87,4.0,Calm,Calm,-,N/A,,Overcast,0,2012-12-28 11:35:00
5:55 AM,41.0,41.0,100,29.88,3.0,North,3.5,-,N/A,,Overcast,350,2012-12-28 11:55:00
6:15 AM,41.0,41.0,100,29.88,3.0,North,3.5,-,N/A,,Overcast,350,2012-12-28 12:15:00
6:35 AM,41.0,41.0,100,29.89,3.0,NNW,4.6,-,N/A,,Overcast,340,2012-12-28 12:35:00
7:15 AM,41.0,41.0,100,29.91,3.0,Calm,Calm,-,N/A,,Overcast,0,2012-12-28 13:15:00
7:35 AM,41.0,41.0,100,29.91,1.5,Calm,Calm,-,N/A,,Overcast,0,2012-12-28 13:35:00
7:55 AM,41.0,41.0,100,29.92,1.5,Calm,Calm,-,N/A,,Overcast,0,2012-12-28 13:55:00
8:15 AM,41.0,41.0,100,29.93,1.5,NW,3.5,-,N/A,,Overcast,320,2012-12-28 14:15:00
8:35 AM,39.2,37.4,93,29.94,1.8,NNW,12.7,-,N/A,,Overcast,340,2012-12-28 14:35:00
8:55 AM,37.4,37.4,100,29.93,3.0,North,6.9,-,N/A,,Overcast,350,2012-12-28 14:55:00
9:15 AM,37.4,37.4,100,29.93,4.0,North,4.6,-,N/A,,Overcast,360,2012-12-28 15:15:00
9:35 AM,37.4,35.6,93,29.95,4.0,NNW,9.2,-,N/A,,Overcast,340,2012-12-28 15:35:00
9:55 AM,35.6,35.6,100,30.00,7.0,NW,15.0,23.0,N/A,,Overcast,320,2012-12-28 15:55:00
10:15 AM,35.6,33.8,93,30.02,10.0,NW,15.0,-,N/A,,Overcast,320,2012-12-28 16:15:00
10:55 AM,35.6,32.0,87,30.04,7.0,NW,18.4,25.3,N/A,,Overcast,320,2012-12-28 16:55:00
11:15 AM,33.8,32.0,93,30.05,7.0,NNW,18.4,24.2,N/A,,Overcast,330,2012-12-28 17:15:00
11:35 AM,33.8,32.0,93,30.06,7.0,NW,16.1,24.2,N/A,,Overcast,320,2012-12-28 17:35:00
11:55 AM,33.8,32.0,93,30.05,10.0,NNW,15.0,24.2,N/A,,Overcast,340,2012-12-28 17:55:00
12:15 PM,32.0,32.0,100,30.04,10.0,NNW,16.1,-,N/A,,Overcast,340,2012-12-28 18:15:00
12:35 PM,32.0,30.2,93,30.05,10.0,NNW,15.0,23.0,N/A,,Overcast,340,2012-12-28 18:35:00
12:55 PM,32.0,30.2,93,30.04,10.0,NNW,15.0,23.0,N/A,,Overcast,330,2012-12-28 18:55:00
1:15 PM,32.0,30.2,93,30.04,10.0,NW,15.0,21.9,N/A,,Overcast,320,2012-12-28 19:15:00
1:35 PM,32.0,30.2,93,30.03,10.0,NW,11.5,-,N/A,,Overcast,320,2012-12-28 19:35:00
1:55 PM,32.0,30.2,93,30.04,10.0,NNW,13.8,19.6,N/A,,Overcast,330,2012-12-28 19:55:00
2:15 PM,33.8,30.2,87,30.04,10.0,NNW,15.0,18.4,N/A,,Overcast,330,2012-12-28 20:15:00
2:35 PM,33.8,30.2,87,30.04,10.0,NNW,12.7,-,N/A,,Overcast,340,2012-12-28 20:35:00
2:55 PM,33.8,30.2,87,30.04,10.0,NW,13.8,-,N/A,,Overcast,320,2012-12-28 20:55:00
3:15 PM,33.8,30.2,87,30.05,10.0,NNW,13.8,-,N/A,,Overcast,330,2012-12-28 21:15:00
3:35 PM,33.8,30.2,87,30.05,10.0,NNW,12.7,-,N/A,,Overcast,340,2012-12-28 21:35:00
3:55 PM,33.8,30.2,87,30.06,10.0,NNW,11.5,-,N/A,,Overcast,330,2012-12-28 21:55:00
4:15 PM,33.8,28.4,81,30.07,10.0,NNW,15.0,18.4,N/A,,Overcast,330,2012-12-28 22:15:00
4:35 PM,33.8,28.4,81,30.07,10.0,NNW,9.2,-,N/A,,Overcast,330,2012-12-28 22:35:00
4:55 PM,33.8,28.4,81,30.07,10.0,NNW,9.2,-,N/A,,Overcast,330,2012-12-28 22:55:00
5:35 PM,33.8,28.4,81,30.08,10.0,NW,8.1,-,N/A,,Scattered Clouds,320,2012-12-28 23:35:00
5:55 PM,33.8,28.4,81,30.09,10.0,NW,3.5,-,N/A,,Clear,320,2012-12-28 23:55:00
6:15 PM,32.0,28.4,87,30.10,10.0,NW,3.5,-,N/A,,Clear,320,2012-12-29 00:15:00
6:35 PM,32.0,28.4,87,30.11,10.0,NNW,4.6,-,N/A,,Clear,330,2012-12-29 00:35:00
6:55 PM,32.0,28.4,87,30.12,10.0,NNW,4.6,-,N/A,,Clear,330,2012-12-29 00:55:00
7:15 PM,32.0,26.6,80,30.13,10.0,NW,4.6,-,N/A,,Clear,320,2012-12-29 01:15:00
7:35 PM,32.0,26.6,80,30.14,10.0,NW,4.6,-,N/A,,Clear,320,2012-12-29 01:35:00
7:55 PM,32.0,26.6,80,30.15,10.0,NW,4.6,-,N/A,,Clear,310,2012-12-29 01:55:00
8:15 PM,32.0,24.8,75,30.16,10.0,NW,6.9,-,N/A,,Clear,320,2012-12-29 02:15:00
8:35 PM,32.0,24.8,75,30.18,10.0,NW,5.8,-,N/A,,Clear,320,2012-12-29 02:35:00
8:55 PM,32.0,24.8,75,30.18,10.0,NW,6.9,-,N/A,,Clear,320,2012-12-29 02:55:00
9:15 PM,32.0,24.8,75,30.19,10.0,NW,5.8,-,N/A,,Clear,310,2012-12-29 03:15:00
9:55 PM,30.2,23.0,75,30.20,10.0,NW,6.9,-,N/A,,Clear,310,2012-12-29 03:55:00
10:15 PM,30.2,23.0,75,30.20,10.0,NW,6.9,-,N/A,,Clear,320,2012-12-29 04:15:00
10:35 PM,30.2,23.0,75,30.21,10.0,NW,8.1,-,N/A,,Clear,320,2012-12-29 04:35:00
10:55 PM,30.2,23.0,75,30.22,10.0,NW,6.9,-,N/A,,Clear,320,2012-12-29 04:55:00
11:15 PM,30.2,23.0,75,30.23,10.0,NW,5.8,-,N/A,,Clear,310,2012-12-29 05:15:00
11:35 PM,28.4,23.0,80,30.23,10.0,WNW,5.8,-,N/A,,Clear,300,2012-12-29 05:35:00
11:55 PM,30.2,21.2,69,30.23,10.0,NW,6.9,-,N/A,,Clear,310,2012-12-29 05:55:00